Hopewell, New Jersey, United States (08525)
Lat: 40.39N, Lon: 74.76W
Wx Zone: NJZ015
Local Info
Past Weather Observations for Wednesday, August 27, 2014

NOTE: This archive is for the closest National Weather Service station to Hopewell. Information may differ from the station used for current weather conditions.

Click here for Long-term Archive

Time Weather Temperature Dewpoint Humidity Pressure Winds Precip Visibility
23:53
Partly Cloudy
79°F / 26°C 68°F / 20°C 70% 29.89 in
(1012 mb)
N 6.9 mph
(N 11 kph)
- 10SM
22:53
Mostly Cloudy
79°F / 26°C 68°F / 20°C 70% 29.89 in
(1012 mb)
N 4.6 mph
(N 7 kph)
- 10SM
21:53
Mostly Cloudy
75°F / 24°C 70°F / 21°C 83% 29.89 in
(1012 mb)
NNW 4.6 mph
(NNW 7 kph)
- 10SM
20:53
Mostly Cloudy
75°F / 24°C 70°F / 21°C 83% 29.86 in
(1011 mb)
Calm - 10SM
19:53
Clear
75°F / 24°C 70°F / 21°C 83% 29.89 in
(1012 mb)
Calm - 10SM
18:53
Clear
81°F / 27°C 70°F / 21°C 70% 29.86 in
(1011 mb)
Calm - 10SM
17:53
Clear
86°F / 30°C 68°F / 20°C 55% 29.86 in
(1011 mb)
Variable 3.5 mph
(Variable 6 kph)
- 10SM
16:53
Clear
90°F / 32°C 66°F / 19°C 46% 29.89 in
(1012 mb)
Variable 4.6 mph
(Variable 7 kph)
- 10SM
15:53
Clear
90°F / 32°C 66°F / 19°C 46% 29.89 in
(1012 mb)
Calm - 10SM
14:53
Clear
90°F / 32°C 66°F / 19°C 46% 29.89 in
(1012 mb)
Variable 3.5 mph
(Variable 6 kph)
- 10SM
13:53
Clear
90°F / 32°C 64°F / 18°C 43% 29.92 in
(1013 mb)
NW 8.1 mph
(NW 13 kph)
- 10SM
12:53
Clear
90°F / 32°C 64°F / 18°C 43% 29.95 in
(1014 mb)
Variable 5.8 mph
(Variable 9 kph)
- 10SM
11:53
Clear
88°F / 31°C 64°F / 18°C 46% 29.95 in
(1014 mb)
W 4.6 mph
(W 7 kph)
- 10SM
10:53
Clear
84°F / 29°C 64°F / 18°C 51% 29.98 in
(1015 mb)
S 4.6 mph
(S 7 kph)
- 10SM
09:53
Clear
82°F / 28°C 64°F / 18°C 55% 30.01 in
(1016 mb)
Variable 4.6 mph
(Variable 7 kph)
- 10SM
08:53
Clear
79°F / 26°C 66°F / 19°C 65% 30.04 in
(1017 mb)
Calm - 10SM
07:53
Clear
72°F / 22°C 64°F / 18°C 78% 30.04 in
(1017 mb)
Calm - 10SM
06:53
Clear
64°F / 18°C 63°F / 17°C 94% 30.04 in
(1017 mb)
Calm - 10SM
06:01
Clear
Fog And Mist
59°F / 15°C 57°F / 14°C 94% 30.04 in
(1017 mb)
Calm - 3SM
05:53
Clear
Fog And Mist
59°F / 15°C 57°F / 14°C 94% 30.04 in
(1017 mb)
Calm - 1 1/4SM
05:51
Clear
Fog And Mist
59°F / 15°C 57°F / 14°C 94% 30.04 in
(1017 mb)
Calm - 1 3/4SM
05:18
Partly Cloudy
59°F / 15°C 57°F / 14°C 94% 30.04 in
(1017 mb)
Calm - 7SM
04:53
Clear
61°F / 16°C 57°F / 14°C 88% 30.04 in
(1017 mb)
Calm - 10SM
04:09
Partly Cloudy
Fog And Mist
61°F / 16°C 59°F / 15°C 94% 30.04 in
(1017 mb)
Calm - 3SM
03:53
Clear
61°F / 16°C 59°F / 15°C 94% 30.04 in
(1017 mb)
Calm - 10SM
03:48
Clear
Fog And Mist
61°F / 16°C 59°F / 15°C 94% 30.04 in
(1017 mb)
NW 3.5 mph
(NW 6 kph)
- 6SM
03:36
Clear
Fog And Mist
61°F / 16°C 59°F / 15°C 94% 30.04 in
(1017 mb)
Calm - 2SM
03:22
Clear
Fog And Mist
61°F / 16°C 59°F / 15°C 94% 30.04 in
(1017 mb)
Calm - 1 3/4SM
02:53
Clear
63°F / 17°C 61°F / 16°C 94% 30.04 in
(1017 mb)
Calm - 10SM
01:53
Clear
63°F / 17°C 61°F / 16°C 94% 30.04 in
(1017 mb)
Calm - 10SM
01:49
Clear
63°F / 17°C 61°F / 16°C 94% 30.04 in
(1017 mb)
Calm - 8SM
01:40
Clear
Fog And Mist
63°F / 17°C 61°F / 16°C 94% 30.04 in
(1017 mb)
Calm - 2SM
01:19
Clear
Fog And Mist
63°F / 17°C 61°F / 16°C 94% 30.06 in
(1018 mb)
Calm - 3SM
01:08
Clear
Fog And Mist
63°F / 17°C 61°F / 16°C 94% 30.06 in
(1018 mb)
Calm - 1 3/4SM
00:53
Clear
Fog And Mist
64°F / 18°C 61°F / 16°C 88% 30.06 in
(1018 mb)
Calm - 6SM
Time Weather Temperature Dewpoint Humidity Pressure Winds Precip Visibility


Weather for websites

WeatherForYou.com, LLC is not responsible for any damages or problems caused by this service. Current weather conditions are obtained from the closest station including government and personal stations which may have varying degrees of accuracy. Weather forecasts are derived from the NOAA NDFD. Like all things, this site belongs to Jesus Christ... He just trusts me to maintain it. If you have any questions or comments email webmaster@weatherforyou.com

Copyright © 2014, WeatherForYou.com LLC. All rights reserved.